Location: Monrovia
(34.7865°N, 86.7139°W)
Time: 21:57:10
(UTC+00:00)

ATLAS 5 CENTAUR R/B - Pass Details

Date: 14 July 2020
Orbit: 534 x 1124 km, 63.4° (Epoch: 03 August)

Event Time Altitude Azimuth Distance (km) Brightness Sun altitude
Rises 08:24:03 0° 336° (NNW) 3,367 5.7 -23.2°
Reaches altitude 10° 08:26:31 10° 344° (NNW) 2,521 5.1 -22.9°
Maximum altitude 08:32:09 42° 54° (NE) 1,343 3.7 -22.1°
Drops below altitude 10° 08:38:33 10° 124° (SE) 2,866 5.0 -21.3°
Sets 08:41:30 0° 131° (SE) 3,875 5.7 -20.9°
